Location: Be Tobo
(6.6442°N, 10.6239°W)
Time: 01:35:48
(UTC+00:00)

H-2A R/B - Pass Details

Date: 18 September 2020
Orbit: 734 x 836 km, 98.2° (Epoch: 21 October)

Event Time Altitude Azimuth Distance (km) Brightness Sun altitude
Exits shadow 19:08:50 - 97° (E) 2,285 3.8 -7.9°
Reaches altitude 10° 19:09:15 10° 92° (E) 2,231 3.7 -8.0°
Maximum altitude 19:10:38 11° 75° (ENE) 2,154 3.7 -8.3°
Drops below altitude 10° 19:12:01 10° 59° (ENE) 2,234 3.9 -8.7°
Sets 19:16:07 0° 24° (NNE) 3,165 5.0 -9.7°
